FENGYUN 1C DEB

Satellite information

Favourite Embed

Satellite Type and Status

DEBRISIN ORBIT

Key statistics

Satellite FENGYUN 1C DEB at a glance.

Uptime

9715

Days in orbit

Revolutions

≈ 14.2

Per day

Orbit

SSO

Sun Synchronous Orbit

Inclination

98.8

Latest

Satellite identification and parameters

Extended collection of information and parameters for FENGYUN 1C DEB.

Object identification

Identified? True

Debris? True

Object name: FENGYUN 1C DEB

International designator: 1999-025QF

Object number (NORAD): 30078

Object ID (CCSDS): 30078

Country: PEOPLES REPUBLIC OF CHINA (PRC)

Current information (Y/N): Y

RCS size: MEDIUM

Orbital parameters

Period: 101.185 minutes

Inclination: 98.832 deg

SMA: 7192.921 km

Apoapsis: 852.693 km

Periapsis: 776.88 km

RAAN: 61.0834 deg

Eccentricy: 0.00526995

Argument of periapsis: 281.974 deg

Mean anomaly: 99.7672 deg

Mean motion: 14.23130732 rev/day

Mean motion (dot): 0.00004612 rev/day2

B* drag term: 0.0020324944 1/REarth

Two-line elements (TLE)

Creation date: Dec. 12, 2025, 10:14 a.m.

Reference frame: TEME

Reference center: EARTH

Epoch: Dec. 12, 2025, 5:14 a.m. UTC

TLE line 0: 0 FENGYUN 1C DEB

TLE line 1: 1 30078U 99025QF 25346.21810951 .00004612 00000-0 20325-2 0 9997

TLE line 2: 2 30078 98.8320 61.0834 0052700 281.9740 99.7672 14.23130732971066

Live tracking on map

Real-time ground track for satellite FENGYUN 1C DEB.

In-orbit conjunctions

A list of the most updated potential collisions computed for object FENGYUN 1C DEB.

Target Orbit TCA Probability of collision Miss distance Type
TIROS 4 LEO 2025-07-06 09:18:38 0.0003651702 530.0 (m) PAYLOAD
METEOR 1-24 LEO 2024-06-03 23:27:41 0.0007453292 457.0 (m) PAYLOAD

Associated space launch

Chinese polar orbiting meteorological satellite

FENGYUN 1C DEB was lifted into orbit during the mission ‘Long March 4B | Feng Yun 1C’, on board a Long March 4B space rocket.

The launch took place on May 10, 1999, 1:33 a.m. from Launch Complex 7.

For more information about the launch, click the button.

Launch to space Long March 4B | Feng Yun 1C
Long March 4B | Feng Yun 1C

Agency: N/A

Status: Launch Successful

Launch date: May 10, 1999, 1:33 a.m. UTC

Rocket: Long March 4B

Launch pad: Launch Complex 7

Location: Taiyuan Satellite Launch Center, People's Republic of China

...

Latest news about this satellite

There are no fresh news available about this satellite. Check back as we update our databases every day.


Newsletter sign-up

Weekly statistics, charts and insights to help you stay on top of the space industry.